Melbourne Airport, Australia

1:24 PM AEDT on October 18, 2017 (GMT +1100)
Melbourne International

Weather History for YMML - February, 2014

Change the Weather History Date:

Tuesday, February 4, 2014

  Actual Average Record
Temperature  
Mean Temperature 66 °F -  
Max Temperature 75 °F 76 °F 100 °F (2000)
Min Temperature 56 °F 55 °F 44 °F (2005)
Growing Degree Days 16 (Base 50)    
Moisture  
Dew Point 47 °F    
Average Humidity 48    
Maximum Humidity 63    
Minimum Humidity 21    
Precipitation  
Precipitation 0.00 in 0.05 in - ()
Sea Level Pressure  
Sea Level Pressure 30.13 in    
Wind  
Wind Speed 20 mph ()    
Max Wind Speed 28 mph    
Max Gust Speed 37 mph    
Visibility 7.5 miles    
Events      
Averages and records for this station are not official NWS values.
T = Trace of Precipitation, MM = Missing Value Source: Averaged Metar Reports

Daily Weather History Graph

Daily Weather History Graph

Search for Another Location

Airport or City:

Trip Planner

Search our weather history database for the weather conditions in past years. The results will help you decide how hot, cold, wet, or windy it might be!

Date:

Astronomy

Feb. 04, 2014 Rise Set
Actual Time 6:37 AM AEDT 8:30 PM AEDT
Civil Twilight 6:09 AM AEDT 8:59 PM AEDT
Nautical Twilight 5:34 AM AEDT 9:33 PM AEDT
Astronomical Twilight 4:57 AM AEDT 10:10 PM AEDT
Moon 11:22 AM AEDT (2/4) 10:59 PM AEDT (2/4)
Length of Visible Light 14h 50m
Length of Day
13h 53m
Waxing Crescent, 22% of the Moon is Illuminated
Feb 4
Waxing Crescent
Feb 7
First Quarter
Feb 15
Full
Feb 23
Last Quarter
Mar 1
New

Hourly Weather History & Observations

Time (AEDT) Temp. Dew Point Humidity Pressure Visibility Wind Dir Wind Speed Gust Speed Precip Events Conditions
12:00 AM 61 °F 48 °F 52% 30.12 in 12 mi South 20.7 mph - -   Haze
12:00 AM 60.8 °F 48.2 °F 63% 30.12 in 6.2 mi South 20.7 mph - N/A   Scattered Clouds
12:30 AM 59.0 °F 46.4 °F 63% 30.12 in 6.2 mi South 20.7 mph - N/A   Scattered Clouds
1:00 AM 60 °F 46 °F 48% 30.14 in - SSE 20.7 mph - -  
1:00 AM 59.0 °F 46.4 °F 63% 30.12 in 6.2 mi SSE 20.7 mph - N/A   Scattered Clouds
1:30 AM 59.0 °F 44.6 °F 59% 30.12 in 6.2 mi South 21.9 mph - N/A   Scattered Clouds
2:00 AM 60 °F 45 °F 47% 30.13 in - SSE 17.3 mph - -  
2:00 AM 59.0 °F 44.6 °F 59% 30.12 in 6.2 mi SSE 17.3 mph - N/A   Mostly Cloudy
2:30 AM 59.0 °F 44.6 °F 59% 30.12 in 6.2 mi SSE 19.6 mph - N/A   Scattered Clouds
3:00 AM 59 °F 44 °F 47% 30.12 in 12 mi SSE 20.7 mph - -   Haze
3:00 AM 59.0 °F 44.6 °F 59% 30.12 in 6.2 mi SSE 20.7 mph - N/A   Scattered Clouds
3:30 AM 59.0 °F 44.6 °F 59% 30.12 in 6.2 mi SSE 19.6 mph - N/A   Scattered Clouds
4:00 AM 58 °F 45 °F 51% 30.12 in - SSE 18.4 mph - -  
4:00 AM 59.0 °F 44.6 °F 59% 30.12 in 6.2 mi SSE 18.4 mph - N/A   Scattered Clouds
4:30 AM 57.2 °F 44.6 °F 63% 30.12 in 6.2 mi SE 13.8 mph - N/A   Scattered Clouds
5:00 AM 57 °F 44 °F 53% 30.13 in - SSE 17.3 mph - -  
5:00 AM 57.2 °F 44.6 °F 63% 30.12 in 6.2 mi SSE 17.3 mph - N/A   Scattered Clouds
5:30 AM 57.2 °F 44.6 °F 63% 30.12 in 6.2 mi SSE 18.4 mph - N/A   Scattered Clouds
6:00 AM 57 °F 44 °F 51% 30.14 in 12 mi SSE 17.3 mph - -   Haze
6:00 AM 57.2 °F 44.6 °F 63% 30.12 in 6.2 mi SSE 17.3 mph - N/A   Partly Cloudy
6:30 AM 57.2 °F 44.6 °F 63% 30.15 in 6.2 mi SSE 15.0 mph - N/A   Partly Cloudy
7:00 AM 58 °F 45 °F 52% 30.16 in - SSE 19.6 mph - -  
7:00 AM 57.2 °F 44.6 °F 63% 30.15 in 6.2 mi SSE 19.6 mph - N/A   Partly Cloudy
7:30 AM 59.0 °F 46.4 °F 63% 30.15 in 6.2 mi SSE 17.3 mph - N/A   Partly Cloudy
8:00 AM 59 °F 45 °F 50% 30.18 in - SE 18.4 mph - -  
8:00 AM 59.0 °F 44.6 °F 59% 30.18 in 6.2 mi SE 18.4 mph - N/A   Partly Cloudy
8:30 AM 60.8 °F 46.4 °F 59% 30.18 in 6.2 mi SSE 18.4 mph - N/A   Scattered Clouds
9:00 AM 64 °F 48 °F 45% 30.19 in 16 mi SSE 20.7 mph - -   Haze
9:00 AM 64.4 °F 48.2 °F 56% 30.18 in 6.2 mi SSE 20.7 mph - N/A   Scattered Clouds
9:30 AM 64.4 °F 48.2 °F 56% 30.18 in 6.2 mi SSE 20.7 mph - N/A   Partly Cloudy
10:00 AM 65 °F 48 °F 44% 30.19 in - SSE 24.2 mph - -  
10:00 AM 64.4 °F 48.2 °F 56% 30.18 in 6.2 mi SSE 24.2 mph - N/A   Scattered Clouds
10:30 AM 66.2 °F 50.0 °F 56% 30.18 in 6.2 mi SSE 23.0 mph - N/A   Scattered Clouds
11:00 AM 68 °F 48 °F 37% 30.18 in - SE 25.3 mph - -  
11:00 AM 68.0 °F 48.2 °F 49% 30.18 in 6.2 mi SE 25.3 mph - N/A   Partly Cloudy
11:30 AM 68.0 °F 46.4 °F 46% 30.18 in 6.2 mi SE 24.2 mph - N/A   Partly Cloudy
11:48 AM 69.8 °F 46.4 °F 43% 30.18 in 6.2 mi SE 24.2 mph 36.8 mph N/A   Partly Cloudy
12:00 PM 70 °F 45 °F 30% 30.17 in 19 mi SE 25.3 mph - -   Partly Cloudy
12:00 PM 69.8 °F 44.6 °F 40% 30.18 in 6.2 mi SE 25.3 mph - N/A   Partly Cloudy
12:30 PM 71.6 °F 42.8 °F 35% 30.15 in 6.2 mi SE 27.6 mph - N/A   Partly Cloudy
1:00 PM 73 °F 45 °F 26% 30.15 in - SE 24.2 mph - -  
1:00 PM 73.4 °F 44.6 °F 36% 30.15 in - SE 24.2 mph - N/A   Clear
1:21 PM 73.4 °F 46.4 °F 38% 30.15 in - South 24.2 mph - N/A   Clear
1:30 PM 71.6 °F 46.4 °F 41% 30.15 in - SSE 21.9 mph - N/A   Clear
1:51 PM 73.4 °F 48.2 °F 41% 30.12 in - South 21.9 mph 33.4 mph N/A   Clear
2:00 PM 72 °F 49 °F 33% 30.13 in - South 23.0 mph - -  
2:00 PM 73.4 °F 48.2 °F 41% 30.12 in 6.2 mi South 23.0 mph - N/A   Partly Cloudy
2:30 PM 73.4 °F 50.0 °F 44% 30.12 in 6.2 mi South 23.0 mph - N/A   Partly Cloudy
3:00 PM 73 °F 50 °F 34% 30.12 in 16 mi South 25.3 mph - -   Haze
3:00 PM 73.4 °F 50.0 °F 44% 30.12 in 6.2 mi South 25.3 mph - N/A   Partly Cloudy
3:03 PM 73.4 °F 50.0 °F 44% 30.12 in 6.2 mi South 25.3 mph 36.8 mph N/A   Partly Cloudy
3:30 PM 73.4 °F 51.8 °F 47% 30.12 in 6.2 mi South 27.6 mph - N/A   Partly Cloudy
4:00 PM 75 °F 51 °F 32% 30.10 in - South 25.3 mph - -  
4:00 PM 75.2 °F 51.8 °F 44% 30.09 in 6.2 mi South 25.3 mph - N/A   Partly Cloudy
4:30 PM 73.4 °F 51.8 °F 47% 30.09 in 6.2 mi South 26.5 mph - N/A   Partly Cloudy
5:00 PM 73 °F 52 °F 37% 30.09 in - South 23.0 mph - -  
5:00 PM 73.4 °F 51.8 °F 47% 30.09 in 6.2 mi South 23.0 mph - N/A   Partly Cloudy
5:30 PM 75.2 °F 51.8 °F 44% 30.09 in 6.2 mi South 21.9 mph - N/A   Partly Cloudy
6:00 PM 75 °F 43 °F 21% 30.09 in 16 mi SSE 21.9 mph - -   Haze
6:00 PM 75.2 °F 42.8 °F 31% 30.09 in 6.2 mi SSE 21.9 mph 33.4 mph N/A   Partly Cloudy
6:30 PM 75.2 °F 44.6 °F 34% 30.09 in 6.2 mi SSE 26.5 mph - N/A   Partly Cloudy
7:00 PM 73 °F 45 °F 26% 30.09 in - SSE 25.3 mph - -  
7:00 PM 73.4 °F 44.6 °F 36% 30.09 in - SSE 25.3 mph - N/A   Clear
7:30 PM 71.6 °F 44.6 °F 38% 30.09 in - SSE 26.5 mph - N/A   Clear
8:00 PM 69 °F 45 °F 31% 30.10 in - SSE 23.0 mph - -  
8:00 PM 69.8 °F 44.6 °F 40% 30.09 in 6.2 mi SSE 23.0 mph - N/A   Partly Cloudy
8:30 PM 68.0 °F 46.4 °F 46% 30.12 in 6.2 mi SE 24.2 mph - N/A   Partly Cloudy
9:00 PM 65 °F 46 °F 38% 30.12 in 12 mi SSE 19.6 mph - -   Haze
9:00 PM 66.2 °F 46.4 °F 49% 30.12 in 6.2 mi SSE 19.6 mph - N/A   Partly Cloudy
9:30 PM 64.4 °F 46.4 °F 52% 30.12 in 6.2 mi SSE 21.9 mph - N/A   Partly Cloudy
10:00 PM 63 °F 46 °F 42% 30.14 in - SSE 19.6 mph - -  
10:00 PM 62.6 °F 46.4 °F 55% 30.12 in - SSE 19.6 mph - N/A   Clear
10:30 PM 62.6 °F 44.6 °F 52% 30.15 in - SSE 18.4 mph - N/A   Clear
11:00 PM 61 °F 46 °F 46% 30.14 in - SE 16.1 mph - -  
11:00 PM 60.8 °F 46.4 °F 59% 30.12 in - SE 16.1 mph - N/A   Clear
11:30 PM 60.8 °F 46.4 °F 59% 30.12 in - SSE 12.7 mph - N/A   Clear